Location: El Águila
(10.4167°N, 66.7167°W)
Time: 19:10:07
(UTC+00:00)

SWIFT - Pass Details

Date: 01 April 2023
Orbit: 527 x 541 km, 20.6° (Epoch: 30 May)

Event Time Altitude Azimuth Distance (km) Brightness Sun altitude
Exits shadow 09:31:30 17° 229° (SW) 1,402 3.9 -13.7°
Maximum altitude 09:32:53 20° 202° (SSW) 1,283 3.9 -13.4°
Drops below altitude 10° 09:35:58 10° 154° (SSE) 1,794 5.2 -12.6°
Sets 09:38:43 0° 137° (SE) 2,684 6.4 -11.9°
